TimeMDT,TemperatureF,Dew PointF,Humidity,Sea Level PressureIn,VisibilityMPH,Wind Direction,Wind SpeedMPH,Gust SpeedMPH,PrecipitationIn,Events,Conditions,WindDirDegrees,DateUTC
12:53 AM,66.9,6.1,9,29.80,10.0,South,5.8,-,N/A,,Clear,190,2013-06-14 06:53:00
1:53 AM,55.9,12.9,18,29.83,10.0,NW,9.2,-,N/A,,Clear,320,2013-06-14 07:53:00
2:53 AM,54.0,12.0,19,29.85,10.0,ESE,3.5,-,N/A,,Clear,120,2013-06-14 08:53:00
3:53 AM,52.0,12.9,21,29.87,10.0,SSE,4.6,-,N/A,,Clear,160,2013-06-14 09:53:00
4:53 AM,51.1,14.0,23,29.88,10.0,SE,4.6,-,N/A,,Clear,130,2013-06-14 10:53:00
5:53 AM,44.1,16.0,32,29.91,10.0,NNE,4.6,-,N/A,,Clear,20,2013-06-14 11:53:00
6:53 AM,48.9,17.1,28,29.92,10.0,Calm,Calm,-,N/A,,Clear,0,2013-06-14 12:53:00
7:53 AM,55.9,17.1,22,29.92,10.0,Calm,Calm,-,N/A,,Clear,0,2013-06-14 13:53:00
8:53 AM,61.0,24.1,24,29.93,10.0,NNW,4.6,-,N/A,,Clear,330,2013-06-14 14:53:00
9:53 AM,66.0,26.1,22,29.94,10.0,NE,3.5,-,N/A,,Clear,40,2013-06-14 15:53:00
10:53 AM,70.0,21.0,16,29.93,10.0,Variable,3.5,-,N/A,,Clear,0,2013-06-14 16:53:00
11:53 AM,73.9,23.0,15,29.90,10.0,Variable,4.6,-,N/A,,Clear,0,2013-06-14 17:53:00
12:53 PM,78.1,24.1,14,29.86,10.0,North,5.8,-,N/A,,Clear,350,2013-06-14 18:53:00
1:53 PM,79.0,24.1,13,29.87,10.0,Variable,3.5,-,N/A,,Clear,0,2013-06-14 19:53:00
2:53 PM,82.9,23.0,11,29.84,10.0,Variable,6.9,-,N/A,,Clear,0,2013-06-14 20:53:00
3:53 PM,82.9,19.9,10,29.82,10.0,ESE,8.1,-,N/A,,Clear,120,2013-06-14 21:53:00
4:53 PM,86.0,10.9,6,29.79,10.0,WSW,10.4,18.4,N/A,,Clear,250,2013-06-14 22:53:00
5:53 PM,84.9,1.0,4,29.81,10.0,SW,12.7,23.0,N/A,,Clear,220,2013-06-14 23:53:00
6:53 PM,82.9,-0.9,4,29.79,10.0,South,15.0,24.2,N/A,,Clear,190,2013-06-15 00:53:00
7:53 PM,80.1,-2.0,4,29.78,10.0,SSW,12.7,23.0,N/A,,Clear,210,2013-06-15 01:53:00
8:53 PM,69.1,3.9,8,29.81,10.0,SSW,4.6,-,N/A,,Clear,200,2013-06-15 02:53:00
9:53 PM,64.0,-0.9,7,29.83,10.0,SSE,4.6,-,N/A,,Clear,160,2013-06-15 03:53:00
10:53 PM,63.0,9.0,12,29.84,10.0,North,4.6,-,N/A,,Clear,360,2013-06-15 04:53:00
11:53 PM,60.1,12.0,15,29.85,10.0,South,5.8,-,N/A,,Clear,180,2013-06-15 05:53:00